星链-36140(STARLINK-36140)

导读

STARLINK-36140是美国SpaceX星链互联网星座的卫星,于2025年12月11日发射升空,归属美国所有。作为星链计划部署的卫星之一,它承担着为全球范围提供低延迟、高速率卫星互联网接入服务的任务,是SpaceX构建近地轨道巨型卫星星座、完善全球卫星互联网络布局的组成部分。

Basic Information
目录编号:
67034
目录名称:
STARLINK-36140
国际标识:
2025-294E
轨道中心:
EARTH
卫星名称:
星链-36140
卫星全名:
星链-36140(STARLINK-36140)
卫星状态:
在轨 (已飞行267 天)
发射日期:
2025-12-11 UTC
国别 :
美国 (US)
星等 :
--
Orbit Information
数据来源 国际轨道数据
星历时间: 2026-09-04T07:39:12+0800
8小时前
查看轨道信息
半长轴: 6861.161km
偏心率: 0.0001601
轨道倾角: 42.999°
近地点辐角 269.360°
升交点赤经 111.472°
平近点角 90.707°
近地点: 481.925km
远地点: 484.123km
周期: 94.266分钟
每日圈数: 15.275887
Detailed Information
固有亮度:
5
最大亮度:
2.5
卫星平台:
Starlink V1.0
覆盖范围:
全球
运营商:
太空探索技术公司
运营商所在国:
美国
制造商(研发单位):
太空探索技术公司
制造商所在国:
美国
使用方式:
暂无
Satellite Introduction
Starlink 计划是 SpaceX 推出的全球卫星互联网项目,通过发射低轨道卫星,为全球尤其是偏远地区提供高速、低延迟的互联网服务。自 2019 年起,Starlink 已部署数千颗卫星,旨在缩小全球数字鸿沟,推动互联网普及。该项目还为军事、航空等行业提供通信支持,带来广泛经济效益。
2D Orbit Map
3D Orbit Map
Orbit Altitude Analysis Chart
Orbit Inclination Analysis Chart
Orbit Comprehensive Analysis Chart
View Comprehensive Chart
Conjunction Data List
Event ID Objects TCA Miss Dist (km) Collision Risk Probability Collision Risk Index (CRI) Action
CDM_260903-055305-993906-703421
2026-09-03T
05:53:12+0000
0.809 km
远距离
2.833817E-5 中风险 0.64
CDM_260905-042705-484606-703421
2026-09-05T
04:27:24+0000
0.926 km
远距离
2.209749E-5 中风险 0.62
CDM_260903-015705-993906-703421
2026-09-03T
01:57:50+0000
0.913 km
远距离
1.895536E-5 中风险 0.61
CDM_260903-180005-610206-703421
2026-09-03T
18:00:00+0000
1.085 km
极远距离
1.455056E-5 中风险 0.58
CDM_260904-054605-610206-703421
2026-09-04T
05:46:11+0000
1.155 km
极远距离
1.170259E-5 中风险 0.56
CDM_260905-060105-484606-703421
2026-09-05T
06:01:33+0000
1.137 km
极远距离
1.08796E-5 中风险 0.56
CDM_260905-025305-484606-703421
2026-09-05T
02:53:15+0000
2.137 km
极远距离
1.618951E-6 低风险 0.39
CDM_260903-193405-610206-703421
2026-09-03T
19:34:10+0000
2.476 km
极远距离
1.34423E-6 低风险 0.38
CDM_260905-073505-484606-703421
2026-09-05T
07:35:42+0000
2.467 km
极远距离
1.217014E-6 低风险 0.37